TimeEST,TemperatureF,Dew PointF,Humidity,Sea Level PressureIn,VisibilityMPH,Wind Direction,Wind SpeedMPH,Gust SpeedMPH,PrecipitationIn,Events,Conditions,WindDirDegrees,DateUTC
12:54 AM,27.0,21.9,81,30.06,10.0,Calm,Calm,-,N/A,,Clear,0,2008-11-27 05:54:00
1:54 AM,27.0,21.9,81,30.06,10.0,Calm,Calm,-,N/A,,Clear,0,2008-11-27 06:54:00
2:54 AM,25.0,21.0,85,30.07,10.0,Calm,Calm,-,N/A,,Clear,0,2008-11-27 07:54:00
3:54 AM,25.0,21.0,85,30.07,10.0,Calm,Calm,-,N/A,,Clear,0,2008-11-27 08:54:00
4:54 AM,24.1,21.0,88,30.08,10.0,Calm,Calm,-,N/A,,Clear,0,2008-11-27 09:54:00
5:54 AM,24.1,21.0,88,30.09,10.0,Calm,Calm,-,N/A,,Clear,0,2008-11-27 10:54:00
6:54 AM,21.9,19.9,92,30.12,10.0,Calm,Calm,-,N/A,,Clear,0,2008-11-27 11:54:00
7:54 AM,23.0,21.0,92,30.13,10.0,Calm,Calm,-,N/A,,Clear,0,2008-11-27 12:54:00
8:54 AM,28.9,25.0,85,30.13,10.0,Calm,Calm,-,N/A,,Clear,0,2008-11-27 13:54:00
9:54 AM,37.9,28.9,70,30.12,10.0,Calm,Calm,-,N/A,,Clear,0,2008-11-27 14:54:00
10:54 AM,46.9,30.0,52,30.12,10.0,North,6.9,-,N/A,,Clear,350,2008-11-27 15:54:00
11:54 AM,52.0,28.9,41,30.07,10.0,North,5.8,-,N/A,,Clear,350,2008-11-27 16:54:00
12:54 PM,55.0,28.9,37,30.04,10.0,North,3.5,-,N/A,,Clear,10,2008-11-27 17:54:00
1:54 PM,57.0,28.0,33,30.01,10.0,Calm,Calm,-,N/A,,Clear,0,2008-11-27 18:54:00
2:54 PM,57.9,28.9,33,29.99,10.0,Calm,Calm,-,N/A,,Clear,0,2008-11-27 19:54:00
3:54 PM,59.0,28.0,31,29.99,10.0,Calm,Calm,-,N/A,,Clear,0,2008-11-27 20:54:00
4:54 PM,55.9,28.0,34,30.00,10.0,Calm,Calm,-,N/A,,Clear,0,2008-11-27 21:54:00
6:54 PM,43.0,30.0,60,30.04,10.0,NNW,8.1,-,N/A,,Clear,340,2008-11-27 23:54:00
7:54 PM,39.9,28.9,65,30.03,10.0,South,3.5,-,N/A,,Clear,180,2008-11-28 00:54:00
8:54 PM,37.0,28.9,73,30.02,10.0,Calm,Calm,-,N/A,,Clear,0,2008-11-28 01:54:00
9:54 PM,34.0,28.0,79,30.03,10.0,Calm,Calm,-,N/A,,Clear,0,2008-11-28 02:54:00
10:54 PM,30.9,27.0,85,30.02,10.0,Calm,Calm,-,N/A,,Clear,0,2008-11-28 03:54:00
11:54 PM,30.9,27.0,85,30.01,10.0,Calm,Calm,-,N/A,,Clear,0,2008-11-28 04:54:00